Location: New Frontier Mobile Home Park
(32.8448°N, 116.9675°W)
Time: 23:11:40
(UTC+00:00)

SL-16 R/B - Pass Details

Date: 14 July 2020
Orbit: 839 x 850 km, 71.0° (Epoch: 05 August)

Event Time Altitude Azimuth Distance (km) Brightness Sun altitude
Exits shadow 03:51:44 12° 106° (ESE) 2,312 3.9 -10.6°
Maximum altitude 03:52:31 12° 98° (E) 2,292 3.9 -10.8°
Drops below altitude 10° 03:54:45 10° 74° (ENE) 2,466 4.3 -11.2°
Sets 03:58:46 0° 46° (NE) 3,410 5.2 -11.8°
